{"data":{"norad_id":60317,"epoch":"2026-09-21T22:25:11.258112Z","epoch_age_seconds":61686,"freshness":"FRESH","line1":"1 60317U 24133S   26264.93415808  .00000885  00000+0  37329-4 0  9996","line2":"2 60317  53.1603 102.8713 0001221  83.2945 276.8196 15.34388053121818","mean_motion":15.34388053,"eccentricity":0.0001221,"inclination_deg":53.1603,"raan_deg":102.8713,"arg_perigee_deg":83.2945,"mean_anomaly_deg":276.8196,"bstar":3.7329e-5,"rev_number":12181,"period_min":93.848488795552,"perigee_km":461.90347851021,"apogee_km":463.57402036823,"semimajor_km":6840.8757494392,"source":"CELESTRAK","updated_at":"2026-09-22T09:00:49.217375Z"}}